Wetterdaten: Donnerstag / Freitag, 18.02.2022
Datum Zeit Temp. A. Feuchte A. Luftdruck Regen Wind Richtung Richtung Sonnenschein UV Solar Windben
17.02.2022 18:00 7,2 C 76 % 1006,3 hPa 0,0 mm 12,9 km/h (3 Bft) W 270 0 min 0 UV-I 0 W/m 33,8 km/h (5 Bft)
17.02.2022 18:10 7,3 C 76 % 1006,3 hPa 0,0 mm 11,3 km/h (2 Bft) W 270 0 min 0 UV-I 0 W/m 25,7 km/h (4 Bft)
17.02.2022 18:20 7,3 C 76 % 1006,8 hPa 0,0 mm 8,0 km/h (2 Bft) W-NW 293 0 min 0 UV-I 0 W/m 20,9 km/h (4 Bft)
17.02.2022 18:30 7,3 C 76 % 1007,0 hPa 0,0 mm 6,4 km/h (2 Bft) W 270 0 min 0 UV-I 0 W/m 24,1 km/h (4 Bft)
17.02.2022 18:40 7,3 C 73 % 1007,3 hPa 0,0 mm 9,7 km/h (2 Bft) W 270 0 min 0 UV-I 0 W/m 32,2 km/h (5 Bft)
17.02.2022 18:50 7,4 C 71 % 1007,7 hPa 0,0 mm 11,3 km/h (2 Bft) W 270 0 min 0 UV-I 0 W/m 24,1 km/h (4 Bft)
17.02.2022 19:00 7,4 C 69 % 1008,0 hPa 0,0 mm 12,9 km/h (3 Bft) W 270 0 min 0 UV-I 0 W/m 33,8 km/h (5 Bft)
17.02.2022 19:10 7,4 C 68 % 1008,3 hPa 0,0 mm 11,3 km/h (2 Bft) W 270 0 min 0 UV-I 0 W/m 25,7 km/h (4 Bft)
17.02.2022 19:20 7,4 C 69 % 1008,3 hPa 0,0 mm 9,7 km/h (2 Bft) W 270 0 min 0 UV-I 0 W/m 30,6 km/h (5 Bft)
17.02.2022 19:30 7,3 C 70 % 1008,4 hPa 0,0 mm 11,3 km/h (2 Bft) W 270 0 min 0 UV-I 0 W/m 25,7 km/h (4 Bft)
17.02.2022 19:40 7,3 C 70 % 1008,4 hPa 0,0 mm 9,7 km/h (2 Bft) W 270 0 min 0 UV-I 0 W/m 29,0 km/h (5 Bft)
17.02.2022 19:50 7,2 C 70 % 1008,5 hPa 0,0 mm 11,3 km/h (2 Bft) W 270 0 min 0 UV-I 0 W/m 22,5 km/h (4 Bft)
17.02.2022 20:00 7,2 C 70 % 1008,4 hPa 0,0 mm 11,3 km/h (2 Bft) W 270 0 min 0 UV-I 0 W/m 29,0 km/h (5 Bft)
17.02.2022 20:10 7,1 C 70 % 1009,0 hPa 0,0 mm 11,3 km/h (2 Bft) W 270 0 min 0 UV-I 0 W/m 27,4 km/h (4 Bft)
17.02.2022 20:20 7,0 C 70 % 1009,0 hPa 0,0 mm 9,7 km/h (2 Bft) W-SW 248 0 min 0 UV-I 0 W/m 25,7 km/h (4 Bft)
17.02.2022 20:30 6,9 C 70 % 1009,0 hPa 0,0 mm 11,3 km/h (2 Bft) W 270 0 min 0 UV-I 0 W/m 22,5 km/h (4 Bft)
17.02.2022 20:40 6,8 C 70 % 1009,0 hPa 0,0 mm 8,0 km/h (2 Bft) W 270 0 min 0 UV-I 0 W/m 25,7 km/h (4 Bft)
17.02.2022 20:50 6,8 C 70 % 1009,1 hPa 0,0 mm 11,3 km/h (2 Bft) W-SW 248 0 min 0 UV-I 0 W/m 27,4 km/h (4 Bft)
17.02.2022 21:00 6,8 C 70 % 1009,1 hPa 0,0 mm 9,7 km/h (2 Bft) W 270 0 min 0 UV-I 0 W/m 27,4 km/h (4 Bft)
17.02.2022 21:10 6,8 C 69 % 1009,3 hPa 0,0 mm 8,0 km/h (2 Bft) W 270 0 min 0 UV-I 0 W/m 19,3 km/h (3 Bft)
17.02.2022 21:20 6,8 C 69 % 1009,5 hPa 0,0 mm 8,0 km/h (2 Bft) W-SW 248 0 min 0 UV-I 0 W/m 20,9 km/h (4 Bft)
17.02.2022 21:30 6,8 C 68 % 1009,6 hPa 0,0 mm 9,7 km/h (2 Bft) SW 225 0 min 0 UV-I 0 W/m 22,5 km/h (4 Bft)
17.02.2022 21:40 6,9 C 67 % 1009,5 hPa 0,0 mm 8,0 km/h (2 Bft) W-NW 293 0 min 0 UV-I 0 W/m 17,7 km/h (3 Bft)
17.02.2022 21:50 6,9 C 66 % 1009,4 hPa 0,0 mm 6,4 km/h (2 Bft) W 270 0 min 0 UV-I 0 W/m 14,5 km/h (3 Bft)
17.02.2022 22:00 6,9 C 66 % 1009,4 hPa 0,0 mm 8,0 km/h (2 Bft) W 270 0 min 0 UV-I 0 W/m 19,3 km/h (3 Bft)
17.02.2022 22:10 6,9 C 66 % 1009,7 hPa 0,0 mm 8,0 km/h (2 Bft) W 270 0 min 0 UV-I 0 W/m 19,3 km/h (3 Bft)
17.02.2022 22:20 6,9 C 71 % 1010,1 hPa 0,3 mm 11,3 km/h (2 Bft) W 270 0 min 0 UV-I 0 W/m 30,6 km/h (5 Bft)
17.02.2022 22:30 6,6 C 77 % 1010,2 hPa 0,0 mm 9,7 km/h (2 Bft) W 270 0 min 0 UV-I 0 W/m 32,2 km/h (5 Bft)
17.02.2022 22:40 6,1 C 79 % 1009,7 hPa 0,0 mm 8,0 km/h (2 Bft) W-NW 293 0 min 0 UV-I 0 W/m 20,9 km/h (4 Bft)
17.02.2022 22:50 5,8 C 80 % 1009,8 hPa 0,0 mm 4,8 km/h (1 Bft) W-NW 293 0 min 0 UV-I 0 W/m 14,5 km/h (3 Bft)
17.02.2022 23:00 5,6 C 81 % 1009,7 hPa 0,0 mm 3,2 km/h (1 Bft) W-NW 293 0 min 0 UV-I 0 W/m 8,0 km/h (2 Bft)
17.02.2022 23:10 5,5 C 82 % 1009,6 hPa 0,0 mm 1,6 km/h (1 Bft) W-SW 248 0 min 0 UV-I 0 W/m 6,4 km/h (2 Bft)
17.02.2022 23:20 5,4 C 82 % 1009,6 hPa 0,0 mm 0,0 km/h (0 Bft) N 0 0 min 0 UV-I 0 W/m 0,0 km/h (0 Bft)
17.02.2022 23:30 5,3 C 82 % 1009,4 hPa 0,0 mm 0,0 km/h (0 Bft) N 0 0 min 0 UV-I 0 W/m 0,0 km/h (0 Bft)
17.02.2022 23:40 5,2 C 83 % 1009,4 hPa 0,0 mm 0,0 km/h (0 Bft) N 0 0 min 0 UV-I 0 W/m 0,0 km/h (0 Bft)
17.02.2022 23:50 5,1 C 83 % 1009,4 hPa 0,3 mm 0,0 km/h (0 Bft) N 0 0 min 0 UV-I 0 W/m 0,0 km/h (0 Bft)
18.02.2022 00:00 5,1 C 83 % 1009,6 hPa 0,0 mm 0,0 km/h (0 Bft) N 0 0 min 0 UV-I 0 W/m 0,0 km/h (0 Bft)
18.02.2022 00:10 5,0 C 84 % 1009,6 hPa 0,0 mm 0,0 km/h (0 Bft) N 0 0 min 0 UV-I 0 W/m 0,0 km/h (0 Bft)
18.02.2022 00:20 5,0 C 84 % 1009,5 hPa 0,0 mm 0,0 km/h (0 Bft) N 0 0 min 0 UV-I 0 W/m 11,3 km/h (2 Bft)
18.02.2022 00:30 5,2 C 83 % 1009,7 hPa 0,0 mm 1,6 km/h (1 Bft) W 270 0 min 0 UV-I 0 W/m 11,3 km/h (2 Bft)
18.02.2022 00:40 5,7 C 82 % 1009,8 hPa 0,0 mm 0,0 km/h (0 Bft) N 0 0 min 0 UV-I 0 W/m 9,7 km/h (2 Bft)
18.02.2022 00:50 5,9 C 81 % 1009,7 hPa 0,0 mm 0,0 km/h (0 Bft) N 0 0 min 0 UV-I 0 W/m 0,0 km/h (0 Bft)
18.02.2022 01:00 5,9 C 81 % 1009,6 hPa 0,0 mm 0,0 km/h (0 Bft) N 0 0 min 0 UV-I 0 W/m 0,0 km/h (0 Bft)
18.02.2022 01:10 5,9 C 81 % 1009,6 hPa 0,0 mm 0,0 km/h (0 Bft) N 0 0 min 0 UV-I 0 W/m 0,0 km/h (0 Bft)
18.02.2022 01:20 5,9 C 81 % 1009,4 hPa 0,0 mm 0,0 km/h (0 Bft) N 0 0 min 0 UV-I 0 W/m 0,0 km/h (0 Bft)
18.02.2022 01:30 5,8 C 82 % 1009,3 hPa 0,0 mm 0,0 km/h (0 Bft) N 0 0 min 0 UV-I 0 W/m 3,2 km/h (1 Bft)
18.02.2022 01:40 5,9 C 83 % 1009,3 hPa 0,0 mm 0,0 km/h (0 Bft) N 0 0 min 0 UV-I 0 W/m 8,0 km/h (2 Bft)
18.02.2022 01:50 6,2 C 83 % 1009,3 hPa 0,0 mm 1,6 km/h (1 Bft) W-SW 248 0 min 0 UV-I 0 W/m 9,7 km/h (2 Bft)
18.02.2022 02:00 6,3 C 84 % 1009,5 hPa 0,0 mm 1,6 km/h (1 Bft) W-SW 248 0 min 0 UV-I 0 W/m 17,7 km/h (3 Bft)
18.02.2022 02:10 6,3 C 84 % 1009,7 hPa 0,0 mm 3,2 km/h (1 Bft) W 270 0 min 0 UV-I 0 W/m 17,7 km/h (3 Bft)
18.02.2022 02:20 6,4 C 84 % 1009,6 hPa 0,0 mm 1,6 km/h (1 Bft) SW 225 0 min 0 UV-I 0 W/m 9,7 km/h (2 Bft)
18.02.2022 02:30 6,4 C 84 % 1009,9 hPa 0,0 mm 1,6 km/h (1 Bft) W-SW 248 0 min 0 UV-I 0 W/m 17,7 km/h (3 Bft)
18.02.2022 02:40 6,4 C 84 % 1009,8 hPa 0,0 mm 1,6 km/h (1 Bft) W-SW 248 0 min 0 UV-I 0 W/m 19,3 km/h (3 Bft)
18.02.2022 02:50 6,5 C 84 % 1009,7 hPa 0,0 mm 1,6 km/h (1 Bft) W-SW 248 0 min 0 UV-I 0 W/m 8,0 km/h (2 Bft)
18.02.2022 03:00 6,5 C 84 % 1009,8 hPa 0,0 mm 1,6 km/h (1 Bft) W-SW 248 0 min 0 UV-I 0 W/m 8,0 km/h (2 Bft)
18.02.2022 03:10 6,5 C 84 % 1009,7 hPa 0,0 mm 1,6 km/h (1 Bft) W 270 0 min 0 UV-I 0 W/m 8,0 km/h (2 Bft)
18.02.2022 03:20 6,4 C 84 % 1009,7 hPa 0,0 mm 1,6 km/h (1 Bft) W-SW 248 0 min 0 UV-I 0 W/m 9,7 km/h (2 Bft)
18.02.2022 03:30 6,3 C 85 % 1009,3 hPa 0,0 mm 1,6 km/h (1 Bft) W-SW 248 0 min 0 UV-I 0 W/m 11,3 km/h (2 Bft)
18.02.2022 03:40 6,3 C 85 % 1009,1 hPa 0,0 mm 1,6 km/h (1 Bft) W-SW 248 0 min 0 UV-I 0 W/m 8,0 km/h (2 Bft)
18.02.2022 03:50 6,2 C 85 % 1009,3 hPa 0,0 mm 1,6 km/h (1 Bft) W-SW 248 0 min 0 UV-I 0 W/m 8,0 km/h (2 Bft)
18.02.2022 04:00 6,2 C 85 % 1009,0 hPa 0,0 mm 0,0 km/h (0 Bft) N 0 0 min 0 UV-I 0 W/m 8,0 km/h (2 Bft)
18.02.2022 04:10 6,2 C 86 % 1008,9 hPa 0,0 mm 0,0 km/h (0 Bft) N 0 0 min 0 UV-I 0 W/m 6,4 km/h (2 Bft)
18.02.2022 04:20 6,1 C 86 % 1009,0 hPa 0,0 mm 0,0 km/h (0 Bft) N 0 0 min 0 UV-I 0 W/m 6,4 km/h (2 Bft)
18.02.2022 04:30 6,1 C 86 % 1009,0 hPa 0,0 mm 0,0 km/h (0 Bft) N 0 0 min 0 UV-I 0 W/m 1,6 km/h (1 Bft)
18.02.2022 04:40 6,0 C 86 % 1008,9 hPa 0,0 mm 0,0 km/h (0 Bft) N 0 0 min 0 UV-I 0 W/m 0,0 km/h (0 Bft)
18.02.2022 04:50 5,9 C 87 % 1008,9 hPa 0,0 mm 0,0 km/h (0 Bft) N 0 0 min 0 UV-I 0 W/m 0,0 km/h (0 Bft)
18.02.2022 05:00 5,9 C 86 % 1008,6 hPa 0,0 mm 0,0 km/h (0 Bft) N 0 0 min 0 UV-I 0 W/m 1,6 km/h (1 Bft)
18.02.2022 05:10 5,9 C 87 % 1008,6 hPa 0,0 mm 0,0 km/h (0 Bft) N 0 0 min 0 UV-I 0 W/m 0,0 km/h (0 Bft)
18.02.2022 05:20 5,8 C 87 % 1008,5 hPa 0,0 mm 0,0 km/h (0 Bft) N 0 0 min 0 UV-I 0 W/m 0,0 km/h (0 Bft)
18.02.2022 05:30 5,8 C 87 % 1008,5 hPa 0,0 mm 0,0 km/h (0 Bft) N 0 0 min 0 UV-I 0 W/m 0,0 km/h (0 Bft)
18.02.2022 05:40 5,8 C 87 % 1008,3 hPa 0,0 mm 0,0 km/h (0 Bft) N 0 0 min 0 UV-I 0 W/m 0,0 km/h (0 Bft)
18.02.2022 05:50 5,8 C 87 % 1008,1 hPa 0,0 mm 0,0 km/h (0 Bft) N 0 0 min 0 UV-I 0 W/m 0,0 km/h (0 Bft)
18.02.2022 06:00 5,8 C 87 % 1007,9 hPa 0,0 mm 0,0 km/h (0 Bft) N 0 0 min 0 UV-I 0 W/m 0,0 km/h (0 Bft)
18.02.2022 06:10 5,9 C 87 % 1007,9 hPa 0,0 mm 0,0 km/h (0 Bft) N 0 0 min 0 UV-I 0 W/m 0,0 km/h (0 Bft)
18.02.2022 06:20 6,0 C 87 % 1007,7 hPa 0,0 mm 0,0 km/h (0 Bft) N 0 0 min 0 UV-I 0 W/m 0,0 km/h (0 Bft)
18.02.2022 06:30 6,1 C 87 % 1007,3 hPa 0,0 mm 0,0 km/h (0 Bft) N 0 0 min 0 UV-I 0 W/m 0,0 km/h (0 Bft)
18.02.2022 06:40 6,2 C 86 % 1007,2 hPa 0,0 mm 0,0 km/h (0 Bft) N 0 0 min 0 UV-I 0 W/m 0,0 km/h (0 Bft)
18.02.2022 06:50 6,2 C 86 % 1007,2 hPa 0,0 mm 0,0 km/h (0 Bft) N 0 0 min 0 UV-I 0 W/m 0,0 km/h (0 Bft)
18.02.2022 07:00 6,3 C 86 % 1006,4 hPa 0,0 mm 0,0 km/h (0 Bft) N 0 0 min 0 UV-I 0 W/m 0,0 km/h (0 Bft)
18.02.2022 07:10 6,3 C 85 % 1006,3 hPa 0,0 mm 0,0 km/h (0 Bft) N 0 0 min 0 UV-I 0 W/m 0,0 km/h (0 Bft)
18.02.2022 07:20 6,2 C 85 % 1006,2 hPa 0,0 mm 0,0 km/h (0 Bft) N 0 0 min 0 UV-I 0 W/m 0,0 km/h (0 Bft)
18.02.2022 07:30 6,2 C 85 % 1005,8 hPa 0,0 mm 0,0 km/h (0 Bft) N 0 0 min 0 UV-I 0 W/m 0,0 km/h (0 Bft)
18.02.2022 07:40 6,2 C 85 % 1005,6 hPa 0,0 mm 0,0 km/h (0 Bft) N 0 0 min 0 UV-I 0 W/m 0,0 km/h (0 Bft)
18.02.2022 07:50 6,2 C 85 % 1005,2 hPa 0,0 mm 0,0 km/h (0 Bft) N 0 0 min 0 UV-I 0 W/m 0,0 km/h (0 Bft)
18.02.2022 08:00 6,2 C 85 % 1005,0 hPa 0,0 mm 0,0 km/h (0 Bft) N 0 0 min 0 UV-I 6 W/m 0,0 km/h (0 Bft)
18.02.2022 08:10 6,2 C 85 % 1004,9 hPa 0,0 mm 0,0 km/h (0 Bft) N 0 0 min 0 UV-I 10 W/m 0,0 km/h (0 Bft)
18.02.2022 08:20 6,2 C 85 % 1004,4 hPa 0,0 mm 0,0 km/h (0 Bft) N 0 0 min 0 UV-I 19 W/m 0,0 km/h (0 Bft)
18.02.2022 08:30 6,3 C 85 % 1004,2 hPa 0,0 mm 0,0 km/h (0 Bft) N 0 0 min 0 UV-I 17 W/m 6,4 km/h (2 Bft)
18.02.2022 08:40 6,4 C 84 % 1004,0 hPa 0,0 mm 0,0 km/h (0 Bft) N 0 0 min 0 UV-I 20 W/m 3,2 km/h (1 Bft)
18.02.2022 08:50 6,5 C 83 % 1003,7 hPa 0,0 mm 1,6 km/h (1 Bft) S-SO 158 0 min 0 UV-I 27 W/m 6,4 km/h (2 Bft)
18.02.2022 09:00 6,6 C 83 % 1003,2 hPa 0,0 mm 0,0 km/h (0 Bft) N 0 0 min 0 UV-I 15 W/m 8,0 km/h (2 Bft)
18.02.2022 09:10 6,7 C 83 % 1003,1 hPa 0,0 mm 1,6 km/h (1 Bft) S-SO 158 0 min 0 UV-I 13 W/m 9,7 km/h (2 Bft)
18.02.2022 09:20 6,9 C 83 % 1002,9 hPa 0,0 mm 1,6 km/h (1 Bft) S-SO 158 0 min 0 UV-I 16 W/m 11,3 km/h (2 Bft)
18.02.2022 09:30 7,1 C 84 % 1002,3 hPa 0,0 mm 0,0 km/h (0 Bft) N 0 0 min 0 UV-I 36 W/m 6,4 km/h (2 Bft)
18.02.2022 09:40 7,2 C 84 % 1001,7 hPa 0,0 mm 0,0 km/h (0 Bft) N 0 0 min 0 UV-I 25 W/m 6,4 km/h (2 Bft)
18.02.2022 09:50 7,2 C 85 % 1001,5 hPa 0,3 mm 0,0 km/h (0 Bft) N 0 0 min 0 UV-I 20 W/m 6,4 km/h (2 Bft)
18.02.2022 10:00 7,1 C 85 % 1001,3 hPa 0,0 mm 1,6 km/h (1 Bft) S-SO 158 0 min 0 UV-I 20 W/m 9,7 km/h (2 Bft)
18.02.2022 10:10 7,1 C 85 % 1000,8 hPa 0,0 mm 0,0 km/h (0 Bft) N 0 0 min 0 UV-I 23 W/m 6,4 km/h (2 Bft)
18.02.2022 10:20 7,0 C 85 % 1000,6 hPa 0,0 mm 1,6 km/h (1 Bft) S 180 0 min 0 UV-I 26 W/m 6,4 km/h (2 Bft)
18.02.2022 10:30 7,1 C 85 % 1000,2 hPa 0,0 mm 0,0 km/h (0 Bft) N 0 0 min 0 UV-I 36 W/m 4,8 km/h (1 Bft)
18.02.2022 10:40 7,1 C 86 % 1000,1 hPa 0,0 mm 0,0 km/h (0 Bft) N 0 0 min 0 UV-I 28 W/m 0,0 km/h (0 Bft)
18.02.2022 10:50 7,3 C 87 % 1000,0 hPa 0,0 mm 3,2 km/h (1 Bft) SW 225 0 min 0 UV-I 20 W/m 16,1 km/h (3 Bft)
18.02.2022 11:00 7,9 C 87 % 999,9 hPa 0,0 mm 3,2 km/h (1 Bft) S-SW 203 0 min 0 UV-I 24 W/m 14,5 km/h (3 Bft)
18.02.2022 11:10 8,3 C 88 % 999,7 hPa 0,0 mm 4,8 km/h (1 Bft) S-SW 203 0 min 0 UV-I 28 W/m 17,7 km/h (3 Bft)
18.02.2022 11:20 8,8 C 88 % 999,3 hPa 0,3 mm 4,8 km/h (1 Bft) S-SW 203 0 min 0 UV-I 35 W/m 17,7 km/h (3 Bft)
18.02.2022 11:30 9,0 C 88 % 999,0 hPa 0,0 mm 4,8 km/h (1 Bft) SW 225 0 min 0 UV-I 36 W/m 12,9 km/h (3 Bft)
18.02.2022 11:40 9,2 C 88 % 998,7 hPa 0,3 mm 4,8 km/h (1 Bft) SW 225 0 min 0 UV-I 45 W/m 16,1 km/h (3 Bft)
18.02.2022 11:50 9,3 C 88 % 998,4 hPa 0,0 mm 4,8 km/h (1 Bft) SW 225 0 min 0 UV-I 44 W/m 17,7 km/h (3 Bft)
18.02.2022 12:00 9,5 C 88 % 998,1 hPa 0,0 mm 6,4 km/h (2 Bft) SW 225 0 min 0 UV-I 57 W/m 22,5 km/h (4 Bft)
18.02.2022 12:10 9,7 C 87 % 998,0 hPa 0,0 mm 8,0 km/h (2 Bft) S-SW 203 0 min 0 UV-I 48 W/m 25,7 km/h (4 Bft)
18.02.2022 12:20 10,0 C 87 % 997,6 hPa 0,0 mm 6,4 km/h (2 Bft) S-SW 203 0 min 0 UV-I 42 W/m 20,9 km/h (4 Bft)
18.02.2022 12:30 10,1 C 86 % 997,3 hPa 0,0 mm 6,4 km/h (2 Bft) SW 225 0 min 0 UV-I 44 W/m 17,7 km/h (3 Bft)
18.02.2022 12:40 10,2 C 86 % 997,1 hPa 0,0 mm 6,4 km/h (2 Bft) S-SW 203 0 min 0 UV-I 58 W/m 22,5 km/h (4 Bft)
18.02.2022 12:50 10,3 C 86 % 996,8 hPa 0,0 mm 8,0 km/h (2 Bft) SW 225 0 min 0 UV-I 60 W/m 24,1 km/h (4 Bft)
18.02.2022 13:00 10,5 C 86 % 996,5 hPa 0,0 mm 9,7 km/h (2 Bft) SW 225 0 min 0 UV-I 54 W/m 22,5 km/h (4 Bft)
18.02.2022 13:10 10,7 C 86 % 996,2 hPa 0,0 mm 8,0 km/h (2 Bft) SW 225 0 min 0 UV-I 69 W/m 22,5 km/h (4 Bft)
18.02.2022 13:20 10,9 C 85 % 995,8 hPa 0,0 mm 8,0 km/h (2 Bft) SW 225 0 min 1 UV-I 74 W/m 25,7 km/h (4 Bft)
18.02.2022 13:30 11,1 C 84 % 995,3 hPa 0,0 mm 8,0 km/h (2 Bft) S-SW 203 0 min 0 UV-I 58 W/m 22,5 km/h (4 Bft)
18.02.2022 13:40 11,3 C 83 % 994,8 hPa 0,0 mm 9,7 km/h (2 Bft) SW 225 0 min 1 UV-I 78 W/m 24,1 km/h (4 Bft)
18.02.2022 13:50 11,4 C 83 % 994,7 hPa 0,0 mm 8,0 km/h (2 Bft) SW 225 0 min 1 UV-I 70 W/m 24,1 km/h (4 Bft)
18.02.2022 14:00 11,7 C 82 % 994,5 hPa 0,0 mm 8,0 km/h (2 Bft) SW 225 0 min 1 UV-I 71 W/m 33,8 km/h (5 Bft)
18.02.2022 14:10 11,9 C 81 % 994,0 hPa 0,0 mm 8,0 km/h (2 Bft) SW 225 0 min 1 UV-I 82 W/m 20,9 km/h (4 Bft)
18.02.2022 14:20 12,1 C 81 % 993,7 hPa 0,0 mm 9,7 km/h (2 Bft) SW 225 0 min 1 UV-I 94 W/m 30,6 km/h (5 Bft)
18.02.2022 14:30 12,3 C 80 % 993,3 hPa 0,0 mm 9,7 km/h (2 Bft) S-SW 203 0 min 1 UV-I 94 W/m 35,4 km/h (5 Bft)
18.02.2022 14:40 12,5 C 80 % 993,1 hPa 0,0 mm 8,0 km/h (2 Bft) SW 225 0 min 1 UV-I 100 W/m 24,1 km/h (4 Bft)
18.02.2022 14:50 12,6 C 80 % 992,6 hPa 0,0 mm 9,7 km/h (2 Bft) S-SW 203 0 min 1 UV-I 148 W/m 30,6 km/h (5 Bft)
18.02.2022 15:00 12,9 C 79 % 992,2 hPa 0,0 mm 9,7 km/h (2 Bft) S-SW 203 0 min 1 UV-I 152 W/m 38,6 km/h (5 Bft)
18.02.2022 15:10 13,1 C 78 % 992,0 hPa 0,0 mm 9,7 km/h (2 Bft) SW 225 0 min 0 UV-I 75 W/m 29,0 km/h (5 Bft)
18.02.2022 15:20 13,1 C 77 % 991,8 hPa 0,0 mm 9,7 km/h (2 Bft) SW 225 0 min 0 UV-I 42 W/m 32,2 km/h (5 Bft)
18.02.2022 15:30 13,0 C 78 % 991,2 hPa 0,0 mm 9,7 km/h (2 Bft) SW 225 0 min 0 UV-I 94 W/m 27,4 km/h (4 Bft)
18.02.2022 15:40 13,1 C 77 % 991,1 hPa 0,0 mm 9,7 km/h (2 Bft) S-SW 203 0 min 1 UV-I 124 W/m 33,8 km/h (5 Bft)
18.02.2022 15:50 13,2 C 77 % 990,7 hPa 0,0 mm 11,3 km/h (2 Bft) SW 225 0 min 0 UV-I 78 W/m 32,2 km/h (5 Bft)
18.02.2022 16:00 13,2 C 77 % 990,5 hPa 0,0 mm 9,7 km/h (2 Bft) SW 225 0 min 0 UV-I 41 W/m 30,6 km/h (5 Bft)
18.02.2022 16:10 13,1 C 78 % 990,4 hPa 0,0 mm 11,3 km/h (2 Bft) S-SW 203 0 min 0 UV-I 45 W/m 30,6 km/h (5 Bft)
18.02.2022 16:20 12,8 C 79 % 990,3 hPa 0,0 mm 9,7 km/h (2 Bft) SW 225 0 min 0 UV-I 26 W/m 29,0 km/h (5 Bft)
18.02.2022 16:30 12,6 C 81 % 990,3 hPa 0,3 mm 6,4 km/h (2 Bft) SW 225 0 min 0 UV-I 11 W/m 24,1 km/h (4 Bft)
18.02.2022 16:40 12,2 C 83 % 991,9 hPa 1,3 mm 11,3 km/h (2 Bft) W-SW 248 0 min 0 UV-I 4 W/m 48,3 km/h (6 Bft)
18.02.2022 16:50 10,8 C 83 % 992,1 hPa 0,3 mm 19,3 km/h (3 Bft) W-SW 248 0 min 0 UV-I 8 W/m 53,1 km/h (7 Bft)
18.02.2022 17:00 9,7 C 83 % 991,4 hPa 0,3 mm 16,1 km/h (3 Bft) W-SW 248 0 min 0 UV-I 7 W/m 46,7 km/h (6 Bft)
_ Min-Zeit 00:10 21:50 16:20 - 23:20 - - - - - 23:20
Minimum _ 5,0 C 66 % 990,3 hPa - 0,0 km/h (0 Bft) - - - - - 0,0 km/h (0 Bft)
_ Max-Zeit 15:50 11:10 22:30 16:40 16:50 - - 18:00 14:50 15:00 16:50
Maximum _ 13,2 C 88 % 1010,2 hPa 1,3 mm 19,3 km/h
W-SW (3 Bft)
- - 0 min 1 UV-I 152 W/m 53,1 km/h
W-SW (7 Bft)
Durchschnitt _ 7,7 C 81 % 1004,1 hPa #3,3 mm 4,6 km/h (1 Bft) SW - #0 min. 0 UV-I 47 W/m 15,0 km/h (3 Bft)